Time,TemperatureF,DewpointF,PressureIn,WindDirection,WindDirectionDegrees,WindSpeedMPH,WindSpeedGustMPH,Humidity,HourlyPrecipIn,Conditions,Clouds,dailyrainin,SoftwareType,DateUTC
2013-07-01 07:43:00,58.0,53.0,30.01,NNE,25,0.0,0.0,82,0.00,,,0.00,,2013-07-01 11:43:00,
2013-07-01 07:52:00,58.0,53.0,30.01,NNE,25,0.0,0.0,83,0.00,,,0.00,,2013-07-01 11:52:00,
2013-07-01 08:01:00,58.0,53.0,30.01,NNE,25,0.0,1.0,83,0.00,,,0.00,,2013-07-01 12:01:00,
2013-07-01 08:11:00,59.0,54.0,30.01,NNE,25,0.0,1.0,83,0.00,,,0.00,,2013-07-01 12:11:00,
2013-07-01 08:22:00,60.0,55.0,30.02,NNE,25,0.0,0.0,83,0.00,,,0.00,,2013-07-01 12:22:00,
2013-07-01 08:33:00,60.0,55.0,30.01,NNE,20,0.0,1.0,84,0.00,,,0.00,,2013-07-01 12:33:00,
2013-07-01 08:43:00,61.0,56.0,30.02,NNE,33,0.0,1.0,83,0.00,,,0.00,,2013-07-01 12:43:00,
2013-07-01 08:53:00,62.0,57.0,30.02,NNE,20,1.0,5.0,83,0.00,,,0.00,,2013-07-01 12:53:00,
2013-07-01 09:02:00,62.0,57.0,30.03,NNE,31,1.0,3.0,83,0.00,,,0.00,,2013-07-01 13:02:00,
2013-07-01 09:12:00,63.0,58.0,30.03,NNE,29,0.0,5.0,83,0.00,,,0.00,,2013-07-01 13:12:00,
2013-07-01 09:23:00,64.0,58.0,30.03,NNE,15,2.0,10.0,81,0.00,,,0.00,,2013-07-01 13:23:00,
2013-07-01 09:33:00,65.0,58.0,30.03,ENE,64,5.0,12.0,77,0.00,,,0.00,,2013-07-01 13:33:00,
2013-07-01 09:53:00,66.0,57.0,30.03,NNE,31,3.0,14.0,74,0.00,,,0.00,,2013-07-01 13:53:00,
2013-07-01 10:01:00,66.0,57.0,30.03,NNE,15,4.0,15.0,74,0.00,,,0.00,,2013-07-01 14:01:00,
2013-07-01 10:34:00,67.0,58.0,30.03,NE,42,12.0,22.0,74,0.00,,,0.00,,2013-07-01 14:34:00,
2013-07-01 10:43:00,68.0,59.0,30.03,NE,55,9.0,21.0,73,0.00,,,0.00,,2013-07-01 14:43:00,
2013-07-01 11:23:00,70.0,55.0,30.03,NNE,29,9.0,26.0,59,0.00,,,0.00,,2013-07-01 15:23:00,
2013-07-01 11:34:00,70.0,55.0,30.03,NNE,20,10.0,24.0,58,0.00,,,0.00,,2013-07-01 15:34:00,
2013-07-01 11:43:00,70.0,55.0,30.04,NE,41,13.0,22.0,58,0.00,,,0.00,,2013-07-01 15:43:00,
2013-07-01 11:52:00,70.0,55.0,30.04,NNE,33,6.0,22.0,59,0.00,,,0.00,,2013-07-01 15:52:00,
2013-07-01 12:22:00,70.0,57.0,30.05,NNE,20,11.0,24.0,63,0.00,,,0.00,,2013-07-01 16:22:00,
2013-07-01 12:53:00,69.0,59.0,30.06,NE,50,10.0,22.0,70,0.00,,,0.00,,2013-07-01 16:53:00,
2013-07-01 13:23:00,69.0,59.0,30.06,NNE,20,13.0,24.0,71,0.00,,,0.00,,2013-07-01 17:23:00,
2013-07-01 13:34:00,69.0,59.0,30.06,NNE,15,10.0,21.0,71,0.00,,,0.00,,2013-07-01 17:34:00,
2013-07-01 14:11:00,68.0,59.0,30.07,North,10,17.0,28.0,72,0.00,,,0.00,,2013-07-01 18:11:00,
2013-07-01 14:22:00,68.0,59.0,30.07,NNE,15,14.0,28.0,72,0.00,,,0.00,,2013-07-01 18:22:00,
2013-07-01 14:33:00,68.0,59.0,30.07,NNE,20,14.0,23.0,72,0.00,,,0.00,,2013-07-01 18:33:00,
2013-07-01 14:53:00,68.0,58.0,30.07,NNE,15,14.0,24.0,71,0.00,,,0.00,,2013-07-01 18:53:00,
2013-07-01 15:02:00,68.0,59.0,30.07,NNE,33,10.0,23.0,73,0.00,,,0.00,,2013-07-01 19:02:00,
2013-07-01 15:22:00,68.0,59.0,30.07,NE,40,14.0,24.0,72,0.00,,,0.00,,2013-07-01 19:22:00,
2013-07-01 15:33:00,67.0,58.0,30.07,NNE,20,12.0,24.0,73,0.00,,,0.00,,2013-07-01 19:33:00,
2013-07-01 15:44:00,67.0,58.0,30.07,North,10,10.0,21.0,74,0.00,,,0.00,,2013-07-01 19:44:00,
2013-07-01 15:52:00,66.0,57.0,30.07,NE,39,13.0,25.0,73,0.00,,,0.00,,2013-07-01 19:52:00,
2013-07-01 16:43:00,65.0,57.0,30.07,NE,42,9.0,23.0,75,0.00,,,0.00,,2013-07-01 20:43:00,
2013-07-01 16:52:00,65.0,57.0,30.07,North,8,13.0,24.0,75,0.00,,,0.00,,2013-07-01 20:52:00,
2013-07-01 17:24:00,64.0,56.0,30.07,ENE,64,13.0,29.0,74,0.00,,,0.00,,2013-07-01 21:24:00,
2013-07-01 17:34:00,63.0,54.0,30.07,NNE,25,13.0,24.0,73,0.00,,,0.00,,2013-07-01 21:34:00,
2013-07-01 17:43:00,63.0,55.0,30.07,NE,34,14.0,26.0,74,0.00,,,0.00,,2013-07-01 21:43:00,
2013-07-01 17:53:00,63.0,55.0,30.08,NNE,31,10.0,23.0,74,0.00,,,0.00,,2013-07-01 21:53:00,
2013-07-01 18:01:00,63.0,54.0,30.08,NNE,25,12.0,24.0,72,0.00,,,0.00,,2013-07-01 22:01:00,
2013-07-01 18:24:00,63.0,53.0,30.09,NE,47,10.0,23.0,71,0.00,,,0.00,,2013-07-01 22:24:00,
2013-07-01 18:43:00,63.0,53.0,30.08,North,11,13.0,25.0,70,0.00,,,0.00,,2013-07-01 22:43:00,
2013-07-01 18:53:00,63.0,53.0,30.08,NE,56,13.0,26.0,69,0.00,,,0.00,,2013-07-01 22:53:00,
2013-07-01 19:01:00,63.0,53.0,30.09,North,9,9.0,24.0,69,0.00,,,0.00,,2013-07-01 23:01:00,
2013-07-01 19:11:00,63.0,53.0,30.09,ENE,62,9.0,29.0,69,0.00,,,0.00,,2013-07-01 23:11:00,
2013-07-01 19:22:00,63.0,52.0,30.09,NE,42,10.0,22.0,68,0.00,,,0.00,,2013-07-01 23:22:00,
2013-07-01 19:33:00,63.0,52.0,30.09,NNE,15,10.0,17.0,68,0.00,,,0.00,,2013-07-01 23:33:00,
2013-07-01 19:44:00,63.0,51.0,30.09,NE,51,13.0,25.0,66,0.00,,,0.00,,2013-07-01 23:44:00,
2013-07-01 19:53:00,63.0,51.0,30.09,NE,39,7.0,17.0,66,0.00,,,0.00,,2013-07-01 23:53:00,
2013-07-01 20:01:00,63.0,51.0,30.09,NNE,20,12.0,22.0,66,0.00,,,0.00,,2013-07-02 00:01:00,
2013-07-01 20:12:00,63.0,51.0,30.09,NNE,29,9.0,22.0,65,0.00,,,0.00,,2013-07-02 00:12:00,
2013-07-01 20:22:00,63.0,51.0,30.09,North,354,11.0,23.0,64,0.00,,,0.00,,2013-07-02 00:22:00,
2013-07-01 20:34:00,63.0,51.0,30.09,NE,40,10.0,25.0,64,0.00,,,0.00,,2013-07-02 00:34:00,
2013-07-01 20:43:00,63.0,51.0,30.10,NE,35,9.0,24.0,64,0.00,,,0.00,,2013-07-02 00:43:00,
2013-07-01 20:53:00,63.0,50.0,30.10,NNE,15,5.0,17.0,63,0.00,,,0.00,,2013-07-02 00:53:00,
2013-07-01 21:01:00,63.0,50.0,30.11,NNE,20,9.0,21.0,63,0.00,,,0.00,,2013-07-02 01:01:00,
2013-07-01 21:11:00,63.0,50.0,30.11,NNE,20,5.0,21.0,63,0.00,,,0.00,,2013-07-02 01:11:00,
2013-07-01 21:22:00,63.0,50.0,30.11,North,8,10.0,17.0,63,0.00,,,0.00,,2013-07-02 01:22:00,
2013-07-01 21:33:00,63.0,50.0,30.11,North,8,10.0,17.0,63,0.00,,,0.00,,2013-07-02 01:33:00,
2013-07-01 21:43:00,63.0,50.0,30.11,North,8,10.0,17.0,63,0.00,,,0.00,,2013-07-02 01:43:00,
2013-07-01 21:53:00,63.0,50.0,30.11,North,8,10.0,17.0,63,0.00,,,0.00,,2013-07-02 01:53:00,
2013-07-01 22:02:00,63.0,50.0,30.11,North,8,10.0,17.0,63,0.00,,,0.00,,2013-07-02 02:02:00,
2013-07-01 23:40:00,63.0,50.0,30.09,North,0,0.0,0.0,63,0.00,,,0.00,,2013-07-02 03:40:00,